Find Al Yah 3

NORAD ID: 43174 Int'l Des: 2018-012 Owner: YAHBR Country: BR operational
HEOCIRCULARGSO

Current View

Loading 3D Globe...

About Al Yah 3

Al Yah 3 (NORAD 43174) is a satellite launched Jan 25, 2018 by YAHBR of BR. It operates in HEO, CIRCULAR, GSO orbit with a mass of 3795.00 kg.

Upcoming Passes

Passes for default location (London). Set your location on the main map for personalized predictions.

Altitude History

Loading altitude history...

Two-Line Element Set

1 43174U 18012A 26256.78714145 -.00000165 00000-0 00000+0 0 9991
2 43174 1.7748 81.9123 0003456 88.9134 85.2330 1.00272419 31734
Epoch: Sep 13, 2026 • Age: 7 hours

Current Status

Altitude 35800.6 km
Apogee / Perigee N/A
Velocity 3.07 km/s
Sub-Earth Point -1.76°S, 20.1°W
Launch Date Jan 25, 2018
Age 8.6 years
Type other

Technical Details

Classification Payload
Mass 3795.00 kg
Dry Mass 2500.00 kg
Total Mass 3795.00 kg
Length 5.00 m
Diameter 2.00 m
Span 18.00 m
Shape Box+ 2 pan
Manufacturer OATKD
Bus Type Star-2.3
Phase Status In Orbit
Owner/State YAHBR/BR

Most Searched